TKJ7NZ LTAJ-LTFJ

Flight info

Callsign TKJ7NZ
Flight time 1h 24m
Altitude 36000
Route BOYAT UL605 POGEN UA17 BELSU UL605 AVCES DCT NEGBU UT329 TOKER
Aircraft B738/M-SDE2E3FGHIRWXY/LB1

Departure

Time 2026-05-01 12:13
Airport Gaziantep Oğuzeli International Airport (LTAJ)

Arrival

Time 2026-05-01 13:38
Airport Istanbul Sabiha Gökçen International Airport (LTFJ)
Time Latitude Longitude Altitude Speed Heading
2026-05-01 11:26 36.94460 37.47911 2224 ft 0 kts 194°
2026-05-01 12:02 36.94464 37.47912 2221 ft 3 kts 194°
2026-05-01 12:02 36.94490 37.47920 2221 ft 4 kts 194°
2026-05-01 12:02 36.94510 37.47927 2220 ft 4 kts 194°
2026-05-01 12:02 36.94535 37.47937 2221 ft 4 kts 217°
2026-05-01 12:03 36.94544 37.47955 2220 ft 2 kts 285°
2026-05-01 12:03 36.94550 37.47930 2220 ft 4 kts 285°
2026-05-01 12:03 36.94554 37.47910 2224 ft 0 kts 285°
2026-05-01 12:06 36.94555 37.47906 2224 ft 1 kts 285°
2026-05-01 12:07 36.94558 37.47892 2224 ft 3 kts 285°
2026-05-01 12:07 36.94568 37.47849 2223 ft 7 kts 286°
2026-05-01 12:07 36.94596 37.47794 2223 ft 8 kts 345°
2026-05-01 12:07 36.94652 37.47784 2223 ft 8 kts 318°
2026-05-01 12:08 36.94673 37.47718 2222 ft 8 kts 285°
2026-05-01 12:08 36.94690 37.47638 2220 ft 11 kts 285°
2026-05-01 12:08 36.94711 37.47539 2224 ft 13 kts 285°
2026-05-01 12:08 36.94736 37.47420 2223 ft 15 kts 285°
2026-05-01 12:09 36.94766 37.47285 2222 ft 17 kts 285°
2026-05-01 12:09 36.94798 37.47137 2224 ft 18 kts 284°
2026-05-01 12:09 36.94832 37.46977 2224 ft 19 kts 285°
2026-05-01 12:09 36.94866 37.46818 2223 ft 19 kts 285°
2026-05-01 12:10 36.94900 37.46664 2224 ft 18 kts 285°
2026-05-01 12:10 36.94963 37.46373 2222 ft 17 kts 285°
2026-05-01 12:10 36.94990 37.46243 2224 ft 11 kts 285°
2026-05-01 12:11 36.95077 37.46194 2223 ft 8 kts 14°
2026-05-01 12:11 36.95133 37.46216 2222 ft 8 kts 32°
2026-05-01 12:11 36.95151 37.46278 2219 ft 8 kts 95°
2026-05-01 12:12 36.95145 37.46312 2218 ft 2 kts 104°
2026-05-01 12:12 36.95141 37.46330 2221 ft 3 kts 104°
2026-05-01 12:12 36.95116 37.46450 2221 ft 41 kts 105°
2026-05-01 12:12 36.94979 37.47082 2222 ft 108 kts 104°
2026-05-01 12:13 36.94735 37.48222 2238 ft 161 kts 109°
2026-05-01 12:13 36.94379 37.49574 2857 ft 162 kts 115°
2026-05-01 12:13 36.93936 37.50868 3664 ft 165 kts 118°
2026-05-01 12:13 36.93450 37.52258 4114 ft 187 kts 119°
2026-05-01 12:14 36.92932 37.53880 4352 ft 215 kts 115°
2026-05-01 12:14 36.92327 37.55709 4707 ft 233 kts 117°
2026-05-01 12:14 36.91696 37.57522 5606 ft 229 kts 117°
2026-05-01 12:14 36.91065 37.59358 6524 ft 226 kts 116°
2026-05-01 12:15 36.90430 37.61129 7264 ft 228 kts 125°
2026-05-01 12:15 36.89302 37.62479 7913 ft 226 kts 156°
2026-05-01 12:15 36.87794 37.62931 8680 ft 224 kts 183°
2026-05-01 12:15 36.86302 37.62420 9398 ft 226 kts 211°
2026-05-01 12:16 36.85192 37.61028 10106 ft 231 kts 240°
2026-05-01 12:16 36.84788 37.59074 10771 ft 240 kts 269°
2026-05-01 12:16 36.85265 37.57034 11336 ft 257 kts 298°
2026-05-01 12:16 36.86508 37.55273 11559 ft 287 kts 317°
2026-05-01 12:17 36.88184 37.53715 11768 ft 313 kts 322°
2026-05-01 12:17 36.90033 37.52084 11996 ft 335 kts 321°
2026-05-01 12:17 36.91946 37.50338 12537 ft 344 kts 320°
2026-05-01 12:17 36.93871 37.48529 13264 ft 348 kts 320°
2026-05-01 12:18 36.95769 37.46648 13981 ft 349 kts 315°
2026-05-01 12:18 36.97477 37.44496 14644 ft 350 kts 309°
2026-05-01 12:18 36.99104 37.42219 15313 ft 352 kts 308°
2026-05-01 12:18 37.00732 37.39903 15937 ft 357 kts 308°
2026-05-01 12:19 37.02389 37.37574 16573 ft 361 kts 309°
2026-05-01 12:19 37.04081 37.35230 17276 ft 364 kts 309°
2026-05-01 12:19 37.05795 37.32883 17966 ft 367 kts 309°
2026-05-01 12:19 37.07536 37.30511 18553 ft 371 kts 310°
2026-05-01 12:20 37.09293 37.28121 19131 ft 374 kts 310°
2026-05-01 12:20 37.11060 37.25718 19745 ft 376 kts 309°
2026-05-01 12:20 37.12825 37.23294 20337 ft 378 kts 308°
2026-05-01 12:20 37.14556 37.20798 20914 ft 380 kts 308°
2026-05-01 12:21 37.16273 37.18265 21507 ft 383 kts 307°
2026-05-01 12:21 37.17981 37.15737 22053 ft 386 kts 307°
2026-05-01 12:21 37.19727 37.13162 22618 ft 389 kts 307°
2026-05-01 12:21 37.21511 37.10540 23178 ft 391 kts 307°
2026-05-01 12:22 37.23262 37.07972 23651 ft 395 kts 308°
2026-05-01 12:22 37.25052 37.05346 24109 ft 397 kts 307°
2026-05-01 12:22 37.26857 37.02715 24582 ft 398 kts 308°
2026-05-01 12:22 37.28689 37.00105 25025 ft 400 kts 308°
2026-05-01 12:23 37.30549 36.97481 25441 ft 403 kts 309°
2026-05-01 12:23 37.32417 36.94848 25851 ft 405 kts 309°
2026-05-01 12:23 37.34294 36.92197 26261 ft 407 kts 308°
2026-05-01 12:23 37.36180 36.89526 26693 ft 409 kts 308°
2026-05-01 12:24 37.38076 36.86834 27092 ft 412 kts 308°
2026-05-01 12:24 37.39974 36.84134 27485 ft 414 kts 308°
2026-05-01 12:24 37.41886 36.81411 27862 ft 416 kts 308°
2026-05-01 12:24 37.43805 36.78676 28250 ft 418 kts 308°
2026-05-01 12:25 37.45733 36.75926 28632 ft 420 kts 308°
2026-05-01 12:25 37.49620 36.70376 29344 ft 424 kts 308°
2026-05-01 12:25 37.51577 36.67587 29664 ft 427 kts 308°
2026-05-01 12:26 37.53561 36.64785 29984 ft 429 kts 308°
2026-05-01 12:26 37.57559 36.59151 30525 ft 433 kts 309°
2026-05-01 12:26 37.59570 36.56311 30803 ft 435 kts 308°
2026-05-01 12:27 37.61588 36.53458 31053 ft 437 kts 308°
2026-05-01 12:27 37.65650 36.47699 31523 ft 441 kts 308°
2026-05-01 12:28 37.69740 36.41894 32033 ft 444 kts 308°
2026-05-01 12:28 37.71794 36.38976 32239 ft 445 kts 308°
2026-05-01 12:28 37.75913 36.33115 32748 ft 446 kts 308°
2026-05-01 12:29 37.77945 36.30219 33090 ft 445 kts 308°
2026-05-01 12:29 37.79991 36.27301 33467 ft 443 kts 308°
2026-05-01 12:29 37.84069 36.21478 34059 ft 441 kts 308°
2026-05-01 12:30 37.88144 36.15687 34580 ft 440 kts 308°
2026-05-01 12:30 37.90181 36.12799 34858 ft 438 kts 308°
2026-05-01 12:30 37.92207 36.09923 35122 ft 437 kts 308°
2026-05-01 12:31 37.94223 36.07056 35363 ft 435 kts 308°
2026-05-01 12:31 37.96230 36.04199 35603 ft 432 kts 308°
2026-05-01 12:31 37.98220 36.01363 35843 ft 429 kts 307°
2026-05-01 12:32 38.02195 35.95683 35933 ft 433 kts 307°
2026-05-01 12:32 38.08253 35.87009 35929 ft 440 kts 307°
2026-05-01 12:33 38.12318 35.81181 35921 ft 441 kts 307°
2026-05-01 12:33 38.16379 35.75343 35923 ft 441 kts 307°
2026-05-01 12:34 38.20429 35.69491 35909 ft 439 kts 307°
2026-05-01 12:34 38.24456 35.63658 35901 ft 438 kts 307°
2026-05-01 12:35 38.28462 35.57848 35892 ft 436 kts 307°
2026-05-01 12:35 38.32451 35.52053 35892 ft 434 kts 307°
2026-05-01 12:36 38.36418 35.46277 35888 ft 433 kts 307°
2026-05-01 12:36 38.40374 35.40507 35878 ft 432 kts 307°
2026-05-01 12:37 38.44319 35.34743 35880 ft 431 kts 307°
2026-05-01 12:37 38.48261 35.28972 35874 ft 431 kts 307°
2026-05-01 12:38 38.51041 35.24898 35871 ft 429 kts 307°
2026-05-01 12:38 38.54937 35.19125 35878 ft 429 kts 306°
2026-05-01 12:39 38.58790 35.13288 35870 ft 430 kts 306°
2026-05-01 12:39 38.62645 35.07432 35890 ft 430 kts 306°
2026-05-01 12:40 38.65852 35.02561 35881 ft 431 kts 306°
2026-05-01 12:40 38.69721 34.96683 35880 ft 432 kts 306°
2026-05-01 12:41 38.73596 34.90787 35894 ft 433 kts 306°
2026-05-01 12:41 38.78108 34.83908 35898 ft 434 kts 306°
2026-05-01 12:42 38.81363 34.78937 35908 ft 434 kts 305°
2026-05-01 12:42 38.85246 34.72996 35904 ft 434 kts 305°
2026-05-01 12:43 38.89120 34.67058 35906 ft 434 kts 305°
2026-05-01 12:43 38.92985 34.61122 35905 ft 433 kts 305°
2026-05-01 12:44 38.96837 34.55194 35909 ft 431 kts 305°
2026-05-01 12:45 39.04502 34.43366 35902 ft 430 kts 305°
2026-05-01 12:45 39.08320 34.37459 35904 ft 429 kts 305°
2026-05-01 12:46 39.11919 34.31440 35899 ft 423 kts 296°
2026-05-01 12:46 39.15254 34.25115 35911 ft 427 kts 304°
2026-05-01 12:47 39.19098 34.19248 35907 ft 429 kts 306°
2026-05-01 12:47 39.22930 34.13418 35906 ft 429 kts 305°
2026-05-01 12:48 39.26751 34.07521 35905 ft 428 kts 305°
2026-05-01 12:48 39.30555 34.01615 35923 ft 428 kts 304°
2026-05-01 12:49 39.34386 33.95668 35926 ft 428 kts 305°
2026-05-01 12:49 39.38198 33.89813 35932 ft 429 kts 305°
2026-05-01 12:50 39.42043 33.83900 35938 ft 430 kts 305°
2026-05-01 12:50 39.45897 33.77954 35937 ft 432 kts 304°
2026-05-01 12:51 39.49655 33.71901 35940 ft 432 kts 303°
2026-05-01 12:52 39.55212 33.62691 35932 ft 430 kts 298°
2026-05-01 12:52 39.59226 33.52426 35936 ft 425 kts 290°
2026-05-01 12:53 39.63044 33.42017 35948 ft 427 kts 290°
2026-05-01 12:54 39.65620 33.35067 35952 ft 428 kts 291°
2026-05-01 12:54 39.69497 33.24619 35961 ft 429 kts 291°
2026-05-01 12:55 39.73366 33.14162 35972 ft 427 kts 291°
2026-05-01 12:56 39.75929 33.07212 35982 ft 426 kts 291°
2026-05-01 12:56 39.78480 33.00276 35986 ft 425 kts 291°
2026-05-01 12:57 39.81018 32.93358 35997 ft 423 kts 290°
2026-05-01 12:57 39.84805 32.83005 36014 ft 423 kts 290°
2026-05-01 12:58 39.87328 32.76087 36001 ft 423 kts 290°
2026-05-01 12:59 39.91095 32.65731 36024 ft 421 kts 290°
2026-05-01 12:59 39.94841 32.55393 36030 ft 420 kts 290°
2026-05-01 13:00 39.98570 32.45067 36041 ft 420 kts 290°
2026-05-01 13:01 40.01988 32.34593 36034 ft 414 kts 280°
2026-05-01 13:02 40.04066 32.23658 36041 ft 414 kts 279°
2026-05-01 13:07 40.18543 31.47097 33635 ft 412 kts 278°
2026-05-01 13:07 40.19219 31.43453 33369 ft 413 kts 278°
2026-05-01 13:07 40.19896 31.39797 33112 ft 414 kts 278°
2026-05-01 13:08 40.20574 31.36133 32859 ft 415 kts 278°
2026-05-01 13:08 40.21254 31.32447 32599 ft 417 kts 278°
2026-05-01 13:08 40.21933 31.28761 32344 ft 418 kts 278°
2026-05-01 13:08 40.22614 31.25060 32081 ft 418 kts 278°
2026-05-01 13:09 40.23292 31.21367 31842 ft 417 kts 278°
2026-05-01 13:09 40.23969 31.17678 31592 ft 416 kts 278°
2026-05-01 13:09 40.24642 31.14002 31351 ft 414 kts 278°
2026-05-01 13:09 40.25310 31.10348 31106 ft 412 kts 277°
2026-05-01 13:10 40.25973 31.06715 30860 ft 409 kts 277°
2026-05-01 13:10 40.26622 31.03145 30581 ft 406 kts 277°
2026-05-01 13:10 40.27279 30.99531 30152 ft 400 kts 277°
2026-05-01 13:10 40.27918 30.96007 29628 ft 396 kts 277°
2026-05-01 13:11 40.28548 30.92522 29161 ft 391 kts 277°
2026-05-01 13:11 40.29169 30.89076 28697 ft 386 kts 277°
2026-05-01 13:11 40.29776 30.85707 28215 ft 383 kts 277°
2026-05-01 13:11 40.30390 30.82293 27750 ft 378 kts 277°
2026-05-01 13:12 40.30981 30.78999 27287 ft 375 kts 277°
2026-05-01 13:12 40.31532 30.75683 26871 ft 369 kts 275°
2026-05-01 13:12 40.31935 30.72348 26499 ft 363 kts 272°
2026-05-01 13:12 40.32273 30.69066 26144 ft 365 kts 272°
2026-05-01 13:13 40.32606 30.65744 25789 ft 370 kts 272°
2026-05-01 13:13 40.32947 30.62447 25407 ft 370 kts 273°
2026-05-01 13:13 40.33302 30.59126 25034 ft 366 kts 273°
2026-05-01 13:13 40.33660 30.55833 24662 ft 362 kts 273°
2026-05-01 13:14 40.34017 30.52577 24301 ft 359 kts 273°
2026-05-01 13:14 40.34370 30.49346 23946 ft 357 kts 273°
2026-05-01 13:14 40.34719 30.46139 23557 ft 355 kts 273°
2026-05-01 13:14 40.34977 30.42947 23150 ft 350 kts 268°
2026-05-01 13:15 40.34957 30.39776 22777 ft 346 kts 264°
2026-05-01 13:15 40.34834 30.36644 22403 ft 343 kts 263°
2026-05-01 13:15 40.34696 30.33531 22080 ft 340 kts 263°
2026-05-01 13:15 40.34569 30.30440 21726 ft 339 kts 264°
2026-05-01 13:16 40.34456 30.27351 21389 ft 339 kts 264°
2026-05-01 13:16 40.34353 30.24267 21045 ft 339 kts 265°
2026-05-01 13:16 40.34256 30.21186 20690 ft 339 kts 265°
2026-05-01 13:17 40.33980 30.11982 19667 ft 334 kts 265°
2026-05-01 13:17 40.33889 30.08946 19323 ft 333 kts 265°
2026-05-01 13:18 40.34034 30.02897 18589 ft 332 kts 275°
2026-05-01 13:18 40.34361 29.99914 18118 ft 330 kts 276°
2026-05-01 13:18 40.34700 29.96936 17539 ft 330 kts 276°
2026-05-01 13:18 40.35035 29.93958 17026 ft 330 kts 276°
2026-05-01 13:19 40.35364 29.90986 16588 ft 327 kts 276°
2026-05-01 13:19 40.35682 29.88051 16223 ft 325 kts 276°
2026-05-01 13:19 40.36305 29.82200 15516 ft 324 kts 276°
2026-05-01 13:20 40.36614 29.79264 15157 ft 326 kts 276°
2026-05-01 13:20 40.36922 29.76318 14792 ft 327 kts 276°
2026-05-01 13:20 40.37230 29.73361 14439 ft 327 kts 276°
2026-05-01 13:21 40.37843 29.67453 13703 ft 327 kts 276°
2026-05-01 13:21 40.38149 29.64503 13311 ft 326 kts 277°
2026-05-01 13:21 40.38452 29.61561 12941 ft 325 kts 277°
2026-05-01 13:21 40.38754 29.58625 12574 ft 324 kts 277°
2026-05-01 13:22 40.39056 29.55683 12099 ft 325 kts 277°
2026-05-01 13:22 40.39355 29.52763 11721 ft 321 kts 277°
2026-05-01 13:22 40.39650 29.49875 11359 ft 318 kts 277°
2026-05-01 13:22 40.39942 29.47014 11013 ft 315 kts 277°
2026-05-01 13:23 40.40231 29.44170 10677 ft 313 kts 277°
2026-05-01 13:23 40.40513 29.41340 10323 ft 313 kts 277°
2026-05-01 13:23 40.40611 29.38537 9980 ft 311 kts 270°
2026-05-01 13:23 40.40551 29.35737 9899 ft 300 kts 268°
2026-05-01 13:24 40.40477 29.33052 9877 ft 288 kts 269°
2026-05-01 13:24 40.40425 29.30485 9740 ft 275 kts 269°
2026-05-01 13:24 40.40387 29.27991 9370 ft 275 kts 270°
2026-05-01 13:25 40.40334 29.23825 8899 ft 274 kts 270°
2026-05-01 13:25 40.40515 29.21353 8626 ft 273 kts 290°
2026-05-01 13:25 40.41344 29.19132 8391 ft 270 kts 302°
2026-05-01 13:25 40.42323 29.17043 8126 ft 269 kts 304°
2026-05-01 13:26 40.43316 29.14966 7999 ft 270 kts 307°
2026-05-01 13:26 40.44670 29.13340 7942 ft 262 kts 333°
2026-05-01 13:26 40.46322 29.12427 7761 ft 255 kts 346°
2026-05-01 13:26 40.48023 29.11799 7498 ft 254 kts 348°
2026-05-01 13:27 40.49733 29.11223 7247 ft 252 kts 349°
2026-05-01 13:27 40.51422 29.10654 7023 ft 250 kts 349°
2026-05-01 13:27 40.54794 29.09491 6666 ft 248 kts 349°
2026-05-01 13:28 40.58103 29.08320 5985 ft 247 kts 349°
2026-05-01 13:28 40.59753 29.07731 5630 ft 245 kts 349°
2026-05-01 13:29 40.63031 29.06554 4986 ft 243 kts 349°
2026-05-01 13:29 40.66258 29.05388 4322 ft 238 kts 349°
2026-05-01 13:30 40.72138 29.03252 3967 ft 190 kts 350°
2026-05-01 13:31 40.74657 29.02342 3994 ft 188 kts 350°
2026-05-01 13:31 40.77821 29.03570 3992 ft 160 kts 49°
2026-05-01 13:32 40.79160 29.05817 3994 ft 155 kts 55°
2026-05-01 13:33 40.80878 29.09533 3809 ft 163 kts 60°
2026-05-01 13:33 40.81861 29.12144 3391 ft 155 kts 61°
2026-05-01 13:34 40.82790 29.14684 2965 ft 151 kts 61°
2026-05-01 13:34 40.83646 29.17032 2590 ft 139 kts 60°
2026-05-01 13:35 40.84506 29.19384 2183 ft 142 kts 60°
2026-05-01 13:35 40.84921 29.20520 1989 ft 136 kts 60°
2026-05-01 13:35 40.85731 29.22737 1633 ft 136 kts 60°
2026-05-01 13:36 40.86147 29.23895 1437 ft 140 kts 61°
2026-05-01 13:36 40.86561 29.25060 1269 ft 139 kts 61°
2026-05-01 13:36 40.87391 29.27289 833 ft 132 kts 62°
2026-05-01 13:37 40.87785 29.28380 631 ft 133 kts 63°
2026-05-01 13:37 40.88197 29.29490 447 ft 135 kts 62°
2026-05-01 13:37 40.88605 29.30587 295 ft 131 kts 62°
2026-05-01 13:37 40.88961 29.31553 307 ft 96 kts 64°
2026-05-01 13:38 40.89295 29.32357 304 ft 22 kts 40°
2026-05-01 13:38 40.89395 29.32456 306 ft 8 kts 35°
2026-05-01 13:38 40.89430 29.32489 306 ft 4 kts 35°
2026-05-01 13:39 40.89452 29.32509 307 ft 3 kts 33°
2026-05-01 13:39 40.89475 29.32512 307 ft 3 kts 347°
2026-05-01 13:39 40.89492 29.32491 308 ft 4 kts 302°
2026-05-01 13:39 40.89496 29.32439 307 ft 8 kts 269°
2026-05-01 13:40 40.89518 29.32370 306 ft 8 kts 320°
2026-05-01 13:40 40.89573 29.32349 307 ft 9 kts 353°
2026-05-01 13:40 40.89640 29.32317 305 ft 12 kts 334°
2026-05-01 13:40 40.89727 29.32261 309 ft 15 kts 334°
2026-05-01 13:41 40.89823 29.32199 309 ft 15 kts 334°
2026-05-01 13:41 40.89916 29.32139 312 ft 15 kts 334°
2026-05-01 13:41 40.90004 29.32082 317 ft 14 kts 334°
2026-05-01 13:41 40.90092 29.32070 320 ft 13 kts 40°
2026-05-01 13:42 40.90134 29.32174 320 ft 13 kts 64°
2026-05-01 13:42 40.90172 29.32279 319 ft 12 kts 64°
2026-05-01 13:42 40.90208 29.32377 318 ft 8 kts 64°
2026-05-01 13:42 40.90222 29.32415 320 ft 4 kts 64°
2026-05-01 13:43 40.90235 29.32450 320 ft 4 kts 64°
2026-05-01 13:43 40.90247 29.32484 320 ft 4 kts 64°
2026-05-01 13:43 40.90259 29.32517 319 ft 4 kts 64°
2026-05-01 13:43 40.90271 29.32549 319 ft 4 kts 63°
2026-05-01 13:44 40.90291 29.32578 319 ft 4 kts 34°
2026-05-01 13:44 40.90320 29.32584 320 ft 4 kts 353°
2026-05-01 13:44 40.90351 29.32570 320 ft 6 kts 337°
2026-05-01 13:44 40.90395 29.32543 319 ft 8 kts 334°
2026-05-01 13:45 40.90452 29.32507 318 ft 10 kts 334°
2026-05-01 13:45 40.90515 29.32465 319 ft 10 kts 333°
2026-05-01 13:45 40.90568 29.32429 320 ft 3 kts 326°
2026-05-01 13:45 40.90568 29.32428 320 ft 0 kts 326°
2026-05-01 13:48 40.90569 29.32428 320 ft 0 kts 326°
2026-05-01 13:48 40.90577 29.32420 320 ft 3 kts 322°
2026-05-01 13:48 40.90594 29.32389 320 ft 6 kts 300°
2026-05-01 13:48 40.90629 29.32333 319 ft 9 kts 324°
2026-05-01 13:49 40.90684 29.32297 320 ft 9 kts 334°
2026-05-01 13:49 40.90730 29.32247 320 ft 9 kts 294°
2026-05-01 13:49 40.90720 29.32173 320 ft 9 kts 244°
2026-05-01 13:49 40.90692 29.32095 319 ft 10 kts 244°
2026-05-01 13:50 40.90659 29.32006 320 ft 11 kts 244°
2026-05-01 13:50 40.90625 29.31912 320 ft 11 kts 244°
2026-05-01 13:50 40.90591 29.31822 319 ft 11 kts 244°
2026-05-01 13:50 40.90561 29.31740 320 ft 10 kts 244°
2026-05-01 13:51 40.90543 29.31683 318 ft 5 kts 271°
2026-05-01 13:51 40.90568 29.31657 320 ft 5 kts 336°
2026-05-01 13:51 40.90594 29.31640 320 ft 3 kts 334°
2026-05-01 13:51 40.90605 29.31634 320 ft 1 kts 334°
2026-05-01 13:52 40.90606 29.31633 320 ft 0 kts 334°